Home > Time Zones > World Clock > Weather > Cuba > Havana > Past weeks

Flag for Cuba Weather past 2 weeks in Havana, Cuba

Now
73 °F

Clear.


Feels Like: 72 °F
Forecast: 78 / 89 °F
Wind: No wind

Location: Aeropuerto Jose Marti - Rancho-Boyeros - Habana

Current Time: Oct 2, 2014 at 2:23:38 AM

Latest Report: Oct 2, 2014 at 1:55 AM


Visibility: 6 mi

Pressure: 30.01 "Hg

Humidity: 89%

Dew point: 70 °F

Location of HavanaLocation

Historic Weather in Havana — Graph

°F

Havana temperature yesterday

Maximum temperature yesterday: 91 °F (at 2:55 PM)
Minimum temperature yesterday: 73 °F (at 5:55 AM)
Average temperature yesterday: 80 °F

Past Weeks' High & Low Weather Summary

 TemperatureHumidityPressure
High91 °F (Sep 22, 2:55 PM)94% (Sep 17, 1:55 AM)30.07 "Hg (Sep 17, 1:55 AM)
Low68 °F (Sep 17, 5:55 AM)41% (Sep 28, 4:55 PM)29.83 "Hg (Sep 29, 4:55 PM)
Average80 °F75%29.95 "Hg
* Reported Sep 17 12:55 AM — Oct 2 12:55 AM, Havana, Weather by CustomWeather, © 2014

Note: Actual official high and low records may vary slightly from our data, if they occured in-between our weather recording intervals... More about our weather records

Advertising

Havana weather history for previous 24 hours

 ConditionsComfort  
Time TempWeatherWind HumidityBarometerVisibility
12:55 AM
Oct 2
75 °FPassing clouds.1 mph83%30.01 "Hg6 mi
11:55 PM
Oct 1
75 °FPassing clouds.3 mph83%30.01 "Hg6 mi
10:55 PM77 °FPassing clouds.3 mph79%30.01 "Hg6 mi
9:55 PM75 °FPassing clouds.5 mph89%30.01 "Hg6 mi
8:55 PM77 °FPassing clouds.2 mph83%29.98 "Hg6 mi
7:55 PM77 °FPartly sunny.5 mph83%29.98 "Hg6 mi
6:55 PM77 °FPartly sunny.1 mph83%29.95 "Hg6 mi
5:55 PM77 °FLight rain. Partly sunny.12 mph83%29.95 "Hg4 mi
4:55 PM88 °FThunderstorms. Scattered clouds.7 mph59%29.92 "Hg6 mi
3:55 PM90 °FScattered clouds.7 mph55%29.92 "Hg6 mi
2:55 PM91 °FScattered clouds.6 mph52%29.92 "Hg6 mi
1:55 PM90 °FScattered clouds.9 mph52%29.95 "Hg6 mi
12:55 PM90 °FScattered clouds.6 mph59%29.98 "Hg6 mi
11:55 AM88 °FPassing clouds.6 mph59%29.98 "Hg6 mi
10:55 AM86 °FScattered clouds.6 mph66%29.98 "Hg6 mi
9:55 AM82 °FPassing clouds.5 mph70%29.98 "Hg6 mi
8:55 AM79 °FPassing clouds.3 mph79%29.98 "Hg6 mi
7:55 AM75 °FPassing clouds.5 mph89%29.95 "Hg5 mi
6:55 AM75 °FPassing clouds.No wind89%29.95 "Hg5 mi
5:55 AM73 °FPassing clouds.2 mph94%29.92 "Hg6 mi
4:55 AM75 °FPassing clouds.3 mph89%29.92 "Hg6 mi
3:55 AM75 °FPassing clouds.6 mph89%29.92 "Hg6 mi
2:55 AM75 °FPassing clouds.5 mph89%29.92 "Hg6 mi
Weather by CustomWeather, © 2014

See weather overviewHow to use our weather pages